Tracking 25612 objects as of 20-May-2022
HD Live streaming from Space Station
objects crossing your sky now

COSMOS 2251 DEB

Track COSMOS 2251 DEB now!
10-day predictions


NORAD ID: 35076
Int'l Code: 1993-036AJF
Perigee: 624.1 km
Apogee: 723.7 km
Inclination: 74.0 °
Period: 98.1 minutes
Semi major axis: 7044 km
RCS: 0.0065 m2 (small)
Launch date: June 16, 1993
Source: Commonwealth of Independent States (former USSR) (CIS)
Launch site: PLESETSK MISSILE AND SPACE COMPLEX (PKMTR)

Note: This is SATELLITE DEBRIS
aabbcc
Your satellite tracking list
Your tracking list is empty




NASA's NSSDC Master Catalog

Two Line Element Set (TLE):
1 35076U 93036AJF 22138.55116926  .00006344  00000-0  10654-2 0  9998
2 35076  73.9713  87.1586 0070683 250.7771 108.5741 14.68210829432209
Source of the keplerian elements: AFSPC